Content
SEND FEEDBACK

Daily
Averages
Monthly
Summary
Australia

SCOTLAND ISLAND, NEW SOUTH WALES


Home > Oceania > Australia > New South Wales
Elevation: 127 feet     Latitude: 33 51S     Longitude: 151 12E

WEATHER
 
SELECT A DAY
Number of Records: 308,055;   Date Range: 7/1/96 - 11/26/14
 
SHARE

PRINT THIS DATA

[ ← Previous Day ]
WEATHER ALMANAC - JANUARY 3, 2013
[ Next Day → ]
[ °C ]   °F
Weather ElementAverageHighLow
Temperature70.9 °F76 °F (3:00 pm)66.2 °F (12:00 am)
Dewpoint56 °F60.8 °F (9:00 pm)51.8 °F (12:00 pm)
Humidity57.3 %73 % (6:30 am)37 % (12:00 pm)
Barometer30.04 in30.09 in (12:00 am)29.98 in (5:30 pm)
Wind Speed11 mph17.3 mph (4:30 pm)
Weather ElementAverage
Visibility7.6 mi
Wind DirectionESE (119.5 °)

Weather ElementTotal
Precipitation---
Cooling Degree Days6.1 (Base 65)
Growing Degree Days21.1 (Base 50)
Averaged from 63 records on January 3, 2013
WEATHER CONDITIONS BREAKOUT
WIND DIRECTION BREAKOUT
WEATHER BY HOUR - JANUARY 3, 2013
[ °C ]   °F
Local TimeTemperatureDewpointHumidityBarometerVisibilityWind DirectionWind SpeedGust SpeedPrecipitationEventsConditions
12:00 AM66.2 °F53.6 °F64 %30.09 in6.2 miSE (140°)9.2 mphMostly Cloudy
12:30 AM66.2 °F53.6 °F64 %30.09 in6.2 miSSE (150°)8.1 mphMostly Cloudy
1:00 AM66.2 °F55.4 °F68 %30.06 in6.2 miSouth (180°)6.9 mphMostly Cloudy
1:30 AM66.2 °F53.6 °F64 %30.06 in6.2 miSouth (180°)8.1 mphMostly Cloudy
2:00 AM67.0 °F54.0 °F53 %30.08 inSouth (180°)8.1 mph
2:00 AM66.2 °F53.6 °F64 %30.06 in6.2 miSouth (180°)8.1 mphMostly Cloudy
2:30 AM66.2 °F53.6 °F64 %30.06 in6.2 miSouth (170°)8.1 mphMostly Cloudy
3:00 AM66.2 °F53.6 °F64 %30.06 in6.2 miSSE (160°)8.1 mphMostly Cloudy
3:00 AM67.0 °F54.0 °F52 %30.07 in12.0 miSSE (160°)8.1 mphHaze
3:30 AM66.2 °F55.4 °F68 %30.06 in6.2 miSSW (200°)10.4 mphMostly Cloudy
4:00 AM66.2 °F55.4 °F68 %30.06 in6.2 miSSW (200°)8.1 mphMostly Cloudy
4:30 AM66.2 °F55.4 °F68 %30.06 in6.2 miSSW (200°)5.8 mphMostly Cloudy
5:00 AM67.0 °F54.0 °F55 %30.06 inSouth (170°)8.1 mph
5:00 AM68.0 °F55.4 °F64 %30.04 in6.2 miSouth (170°)8.1 mphMostly Cloudy
5:30 AM68.0 °F53.6 °F60 %30.04 in6.2 miSouth (170°)12.7 mphMostly Cloudy
6:00 AM66.2 °F55.4 °F68 %30.04 in6.2 miSouth (190°)9.2 mphMostly Cloudy
6:00 AM67.0 °F55.0 °F57 %30.06 in12.0 miSouth (190°)9.2 mphHaze
6:30 AM66.2 °F57.2 °F73 %30.06 in6.2 miSouth (190°)5.8 mphMostly Cloudy
7:00 AM66.2 °F55.4 °F68 %30.06 in6.2 miSSW (210°)5.8 mphMostly Cloudy
7:30 AM68.0 °F55.4 °F64 %30.06 in6.2 miSSE (160°)6.9 mphScattered Clouds
8:00 AM68.0 °F57.0 °F58 %30.08 inSouth (180°)8.1 mph
8:00 AM68.0 °F57.2 °F68 %30.06 in6.2 miSouth (180°)8.1 mphMostly Cloudy
8:30 AM69.8 °F55.4 °F60 %30.06 in6.2 miSouth (170°)8.1 mphMostly Cloudy
9:00 AM69.8 °F55.4 °F60 %30.06 in6.2 miSouth (190°)8.1 mphScattered Clouds
9:00 AM70.0 °F55.0 °F49 %30.09 in12.0 miSouth (190°)8.1 mphHaze
9:30 AM71.6 °F55.4 °F57 %30.06 in6.2 miSSE (150°)6.9 mphScattered Clouds
10:00 AM69.8 °F57.2 °F64 %30.06 in6.2 miSSE (160°)8.1 mphScattered Clouds
10:30 AM71.6 °F55.4 °F57 %30.06 in6.2 miSSE (160°)10.4 mphScattered Clouds
11:00 AM73.0 °F55.0 °F44 %30.08 inSSE (160°)11.5 mph
11:00 AM73.4 °F55.4 °F53 %30.06 in6.2 miSSE (160°)11.5 mphScattered Clouds
11:30 AM71.6 °F53.6 °F53 %30.06 in6.2 miSSE (150°)12.7 mphScattered Clouds
12:00 PM73.4 °F51.8 °F47 %30.06 in6.2 miESE (110°)12.7 mphMostly Cloudy
12:00 PM73.0 °F52.0 °F37 %30.07 in16.0 miESE (110°)12.7 mphHaze
12:30 PM75.2 °F53.6 °F47 %30.04 in6.2 miEast (100°)13.8 mphMostly Cloudy
1:00 PM75.2 °F53.6 °F47 %30.04 in6.2 miEast (90°)12.7 mphScattered Clouds
1:30 PM73.4 °F53.6 °F50 %30.04 in6.2 miEast (100°)12.7 mphScattered Clouds
2:00 PM74.0 °F53.0 °F37 %30.04 inEast (80°)13.8 mph
2:00 PM75.2 °F53.6 °F47 %30.04 in6.2 miEast (80°)13.8 mphPartly Cloudy
2:30 PM75.2 °F53.6 °F47 %30.01 in6.2 miEast (80°)13.8 mphPartly Cloudy
3:00 PM75.2 °F55.4 °F50 %30.01 in6.2 miEast (90°)15.0 mphPartly Cloudy
3:00 PM76.0 °F55.0 °F37 %30.02 in16.0 miEast (90°)15.0 mphPartly Cloudy
3:30 PM75.2 °F55.4 °F50 %30.01 in6.2 miEast (80°)15.0 mphPartly Cloudy
4:00 PM75.2 °F55.4 °F50 %30.01 in6.2 miEast (90°)16.1 mphPartly Cloudy
4:30 PM75.2 °F55.4 °F50 %30.01 inEast (80°)17.3 mphClear
5:00 PM75.0 °F57.0 °F43 %30.01 inEast (80°)17.3 mph
5:00 PM75.2 °F57.2 °F53 %30.01 inEast (80°)17.3 mphClear
5:30 PM73.4 °F59.0 °F61 %29.98 in6.2 miEast (80°)17.3 mphPartly Cloudy
6:00 PM73.4 °F59.0 °F61 %29.98 in6.2 miENE (70°)16.1 mphPartly Cloudy
6:00 PM74.0 °F59.0 °F50 %30.00 in19.0 miENE (70°)16.1 mphPartly Cloudy
6:30 PM73.4 °F59.0 °F61 %29.98 in6.2 miENE (70°)17.3 mphPartly Cloudy
7:00 PM73.4 °F59.0 °F61 %30.01 in6.2 miENE (70°)16.1 mphPartly Cloudy
7:30 PM73.4 °F59.0 °F61 %30.01 in6.2 miENE (60°)15.0 mphPartly Cloudy
8:00 PM74.0 °F59.0 °F49 %30.02 inNE (50°)13.8 mph
8:00 PM73.4 °F59.0 °F61 %30.01 inNE (50°)13.8 mphClear
8:30 PM73.4 °F59.0 °F61 %30.01 inNE (50°)12.7 mphClear
9:00 PM71.6 °F60.8 °F69 %30.01 inNE (40°)10.4 mphClear
9:00 PM72.0 °F60.0 °F57 %30.03 in19.0 miNE (40°)10.4 mphPartly Cloudy
9:30 PM71.6 °F59.0 °F64 %30.01 inNNE (30°)8.1 mphClear
10:00 PM73.4 °F59.0 °F61 %30.04 inNNE (30°)9.2 mphClear
10:30 PM73.4 °F59.0 °F61 %30.04 inNNE (30°)8.1 mphClear
11:00 PM72.0 °F60.0 °F57 %30.04 inNNE (20°)8.1 mph
11:00 PM71.6 °F60.8 °F69 %30.04 inNNE (20°)8.1 mphClear
11:30 PM71.6 °F59.0 °F64 %30.04 inNorth (10°)9.2 mphClear
Hourly data recorded from YSSY, located miles away from Scotland Island, New South Wales







STORIES FROM OUR PARTNERS